Location: Windsor
(43.2292°N, 89.3015°W)
Time: 08:59:23
(UTC+00:00)

Tiangong - Visible Passes

Search period start: 23 September 2023 00:00
Search period end: 03 October 2023 00:00
Orbit: 374 x 385 km, 41.5° (Epoch: 22 September)

Date Brightness Start Highest point End Pass type
(mag) Time Alt. Az. Time Alt. Az. Time Alt. Az.
28 Sep 0.7 01:35:58 10° SSW 01:36:02 10° SSW 01:36:02 10° SSW visible
29 Sep 0.0 00:35:35 10° S 00:37:03 13° SSE 00:37:48 12° SE visible
30 Sep -0.9 01:09:03 10° SW 01:11:31 28° S 01:11:31 28° S visible
01 Oct -0.4 00:08:03 10° SSW 00:10:21 19° SSE 00:12:40 10° ESE visible
01 Oct -0.1 01:43:38 10° WSW 01:45:03 23° WSW 01:45:03 23° WSW visible
02 Oct -1.5 00:42:09 10° SW 00:45:05 39° SSE 00:46:22 25° ESE visible
